Plymouth, MA

2:09 PM EST on December 09, 2019 (GMT -0500)
Plymouth Municipal

Weather History for KPYM - November, 2019

Change the Weather History Date:

Friday, November 15, 2019

  Actual Average Record
Temperature  
Mean Temperature 40 °F -  
Max Temperature 53 °F 52 °F 78 °F (1993)
Min Temperature 26 °F 33 °F 15 °F (1986)
Degree Days  
Heating Degree Days 26    
Moisture  
Dew Point 29 °F    
Average Humidity 70    
Maximum Humidity 96    
Minimum Humidity 34    
Precipitation  
Precipitation 0.00 in - - ()
Sea Level Pressure  
Sea Level Pressure 30.16 in    
Wind  
Wind Speed 7 mph (WSW)    
Max Wind Speed 22 mph    
Max Gust Speed 28 mph    
Visibility 10 miles    
Events      
Averages and records for this station are not official NWS values.
T = Trace of Precipitation, MM = Missing Value Source: NWS Daily Summary

Daily Weather History Graph

Daily Weather History Graph

Search for Another Location

Airport or City:

Astronomy

Nov. 15, 2019 Rise Set
Actual Time 6:32 AM EST 4:22 PM EST
Civil Twilight 6:02 AM EST 4:52 PM EST
Nautical Twilight 5:28 AM EST 5:25 PM EST
Astronomical Twilight 4:55 AM EST 5:58 PM EST
Moon 6:53 PM EST (11/15) 9:27 AM EST (11/15)
Length of Visible Light 10h 49m
Length of Day
9h 49m
Waning Gibbous, 90% of the Moon is Illuminated
Nov 15
Waning Gibbous
Nov 19
Last Quarter
Nov 26
New
Dec 4
First Quarter
Dec 12
Full

Hourly Weather History & Observations

Time (EST) Temp. Windchill Dew Point Humidity Pressure Visibility Wind Dir Wind Speed Gust Speed Precip Events Conditions
12:52 AM 35.1 °F 32.2 °F 33.1 °F 92% 30.25 in 10.0 mi SW 3.5 mph - N/A   Scattered Clouds
1:22 AM 35.1 °F 30.1 °F 33.1 °F 92% 30.24 in 10.0 mi WSW 5.8 mph - N/A   Mostly Cloudy
1:31 AM 37.0 °F 32.4 °F 34.0 °F 89% 30.24 in 10.0 mi West 5.8 mph - N/A   Mostly Cloudy
1:52 AM 37.9 °F 33.5 °F 34.0 °F 86% 30.25 in 10.0 mi WSW 5.8 mph - N/A   Partly Cloudy
2:52 AM 36.0 °F 31.1 °F 30.0 °F 79% 30.22 in 10.0 mi WSW 5.8 mph - N/A   Clear
3:52 AM 33.1 °F 26.9 °F 28.0 °F 82% 30.23 in 10.0 mi WSW 6.9 mph - N/A   Clear
4:52 AM 30.9 °F - 27.0 °F 85% 30.22 in 10.0 mi Calm Calm - N/A   Clear
5:52 AM 26.1 °F - 25.0 °F 96% 30.22 in 10.0 mi Calm Calm - N/A   Clear
6:52 AM 27.0 °F - 26.1 °F 96% 30.21 in 10.0 mi Calm Calm - N/A   Scattered Clouds
7:52 AM 30.9 °F 25.2 °F 28.0 °F 89% 30.22 in 10.0 mi SW 5.8 mph - N/A   Scattered Clouds
8:52 AM 41.0 °F 35.2 °F 28.0 °F 60% 30.20 in 10.0 mi SSW 9.2 mph - N/A   Clear
9:52 AM 46.0 °F 39.6 °F 25.0 °F 44% 30.18 in 10.0 mi SW 15.0 mph - N/A   Clear
10:52 AM 48.9 °F - 21.9 °F 35% 30.15 in 10.0 mi SW 17.3 mph - N/A   Clear
11:52 AM 52.0 °F - 24.1 °F 34% 30.11 in 10.0 mi WSW 19.6 mph 26.5 mph N/A   Clear
12:52 PM 53.1 °F - 25.0 °F 34% 30.07 in 10.0 mi WSW 17.3 mph 25.3 mph N/A   Clear
1:52 PM 53.1 °F - 28.9 °F 40% 30.06 in 10.0 mi WSW 21.9 mph 27.6 mph N/A   Clear
2:52 PM 52.0 °F - 32.0 °F 47% 30.05 in 10.0 mi SW 16.1 mph 23.0 mph N/A   Clear
3:52 PM 48.9 °F - 34.0 °F 56% 30.05 in 10.0 mi SW 9.2 mph - N/A   Clear
4:52 PM 44.1 °F 40.8 °F 33.1 °F 65% 30.07 in 10.0 mi SW 5.8 mph - N/A   Clear
5:52 PM 39.9 °F 37.8 °F 32.0 °F 73% 30.09 in 10.0 mi West 3.5 mph - N/A   Clear
6:52 PM 36.0 °F 33.3 °F 30.9 °F 82% 30.10 in 10.0 mi SW 3.5 mph - N/A   Clear
7:52 PM 37.0 °F 33.3 °F 30.0 °F 76% 30.11 in 10.0 mi SW 4.6 mph - N/A   Clear
8:52 PM 33.1 °F 30.0 °F 28.9 °F 85% 30.12 in 10.0 mi SW 3.5 mph - N/A   Clear
9:52 PM 39.0 °F 33.4 °F 27.0 °F 62% 30.16 in 10.0 mi WNW 8.1 mph - N/A   Clear
10:52 PM 37.9 °F 30.5 °F 26.1 °F 62% 30.18 in 10.0 mi NW 11.5 mph - N/A   Clear
11:52 PM 36.0 °F 33.3 °F 26.1 °F 67% 30.18 in 10.0 mi WNW 3.5 mph - N/A   Clear